Regional Weather Roundup
Issued by NWS

Home | Current Version | Previous Version | Text Only | Print | Product List | Glossary Off
Versions: 1 2 3 4 5 6 7 8 9 10 11 12 13 14 15 16 17 18 19 20 21 22 23 24 25 26 27 28 29 30 31 32 33 34 35 36 37 38 39 40 41 42 43 44 45 46 47 48 49 50

000
ASUS43 KDMX 250701
RWRIA

WEATHER ROUNDUP FOR IOWA
NATIONAL WEATHER SERVICE DES MOINES IA
100 AM CST SAT FEB 25 2017

NOTE: "FAIR" INDICATES FEW OR NO CLOUDS BELOW 12,000 FEET WITH NO
SIGNIFICANT WEATHER AND/OR OBSTRUCTIONS TO VISIBILITY.

* - THESE STATIONS ARE NOT NWS STATIONS...THUS NOT UNDER NWS
QUALITY CONTROL.  THEY ALSO DO NOT REPORT WEATHER SUCH
AS PRECIPITATION OR FOG.

IAZ001>003-012>014-020>022-031>034-043>046-250800-
   NORTHWEST IOWA

CITY           SKY/WX    TMP DP  RH WIND       PRES   REMARKS
CARROLL *      PTCLDY    21  18  86 NW16      29.99R WCI   7
CHEROKEE *     CLEAR     18  13  82 NW9G16    30.03R WCI   6
DENISON *      CLEAR     18  12  79 NW14G20   30.01R WCI   4
LE MARS *      CLEAR     19  12  73 NW10      30.07R WCI   8
SHELDON *      CLEAR     16  16 100 NW14      30.01R WCI   1
SIOUX CITY     CLOUDY    21  14  74 NW17      30.08R WCI   7
SPENCER        CLEAR     16  10  77 NW14      29.99R WCI   2
STORM LAKE *   CLEAR     16  12  86 NW17      29.99R WCI   0
$$

IAZ055>058-069>071-079>083-090>094-250800-
   SOUTHWEST IOWA

CITY           SKY/WX    TMP DP  RH WIND       PRES   REMARKS
ATLANTIC *     CLOUDY    21  14  73 NW16G22   30.03R WCI   7
AUDUBON *      CLEAR     19  14  79 NW14G22   30.00R WCI   6
CLARINDA *     MOCLDY    23  16  74 NW13G20   30.08R WCI  11
COUNCIL BLFS * CLOUDY    21  16  79 NW10      30.06R WCI  10
CRESTON *      CLEAR     21  14  73 NW18G25   30.00R WCI   6
HARLAN  *      CLEAR     19  16  86 N20       30.06R WCI   4
LAMONI         PTCLDY    22  15  75 NW20G28   29.97R WCI   7
RED OAK *      PTCLDY    21  16  79 NW10      30.06R WCI  10
SHENANDOAH *   MOCLDY    23  18  80 NW9       30.08R WCI  13
$$

IAZ047>049-059>061-072>074-084-250800-
   CENTRAL IOWA

CITY           SKY/WX    TMP DP  RH WIND       PRES   REMARKS
AMES           CLEAR     21  16  81 NW18G29   29.94R WCI   6
ANKENY *       CLEAR     21  14  73 NW15      29.96R WCI   8
BOONE *        CLEAR     19  14  79 NW15G25   29.93R WCI   5
CHARITON *     CLEAR     21  16  79 NW16      29.94R WCI   7
DES MOINES     MOCLDY    21  14  74 NW17G24   29.95R WCI   7
GRINNELL*      PTCLDY    19  15  82 NW16      29.89R WCI   5
KNOXVILLE *    PTCLDY    21  14  73 NW17G24   29.92R WCI   7
MARSHALLTOWN   CLEAR     19  13  77 NW17      29.89R WCI   4
NEWTON *       CLEAR     19  14  79 NW16      29.90R WCI   5
PELLA *        MOCLDY    21  15  76 NW14G22   29.93R WCI   8
PERRY *          N/A     20  15  83 NW16G22   29.98R WCI   5
$$

IAZ004>006-015-016-023>025-035-036-250800-
   NORTH CENTRAL IOWA

CITY           SKY/WX    TMP DP  RH WIND       PRES   REMARKS
ALGONA *       CLEAR     16  14  93 NW15      29.93R WCI   1
CLARION *      CLEAR     16  12  86 NW21      29.92R WCI  -2
ESTHERVILLE    CLEAR     15  11  83 NW21      29.95R WCI  -2
FORT DODGE *   CLEAR     18   9  68 NW6       29.96R WCI   9
MASON CITY     CLEAR     15  11  83 NW17      29.89R WCI  -1
FOREST CITY *  MOCLDY    16  12  86 NW12G17   29.89S WCI   3
WEBSTER CITY * CLEAR     18  14  86 NW23G30   29.91S WCI   0
IOWA FALLS *     N/A     18  13  79 NW13      29.91R WCI   5
$$

IAZ007>011-017>019-026>030-037>042-050>054-066-250800-
   NORTHEAST IOWA

CITY           SKY/WX    TMP DP  RH WIND       PRES   REMARKS
CEDAR RAPIDS   LGT SNOW  21  17  84 N23       29.81R FOG     WCI   5
CHARLES CITY * CLOUDY    18  12  79 NW16      29.85S WCI   3
CLINTON *      LGT SNOW  25  22  88 NW21      29.73R FOG     WCI  11
DECORAH *      LGT SNOW  19  18  93 NW13      29.78S WCI   7
DUBUQUE        LGT SNOW  20  17  88 N20       29.73R FOG     WCI   4
MONTICELLO *   LGT SNOW  21  18  86 NW18G26   29.77R WCI   6
OELWEIN *      CLOUDY    21  18  86 NW18G28   29.81S WCI   6
WATERLOO       CLOUDY    21  14  74 NW20G26   29.85R WCI   6
$$

IAZ064-065-067-068-078-250800-
   EAST CENTRAL IOWA

CITY           SKY/WX    TMP DP  RH WIND       PRES   REMARKS
DAVENPORT      LGT SNOW  24  20  84 NW21G28   29.75R FOG     WCI   9
IOWA CITY      LGT SNOW  23  19  85 NW15G23   29.84R FOG     WCI  10
MUSCATINE *    MIX PCPN  25  21  86 NW18G31   29.82R WCI  11
QUAD CITIES    MIX PCPN  27  21  78 NW20      29.76R WCI  13
$$

IAZ062-063-075>077-085>089-095>099-250800-
   SOUTHEAST IOWA

CITY           SKY/WX    TMP DP  RH WIND       PRES   REMARKS
BURLINGTON     CLOUDY    25  21  85 NW18G30   29.82R FOG     WCI  11
FAIRFIELD *    CLOUDY    25  18  74 NW21G32   29.85S WCI  10
KEOKUK *       FLURRIES  27  21  80 NW14G21   29.85R WCI  15
CENTERVILLE *    N/A     23  18  80 W18       29.93R WCI   9
OTTUMWA        PTCLDY    23  17  78 NW17      29.89R WCI   9
WASHINGTON *   LGT SNOW  23  21  93 NW18G28   29.85R WCI   9
$$

ABBREVIATIONS USED IN REMARKS
   TC - TEMPERATURES IN CELSIUS
  WCI - WIND CHILL INDEX
   HX - HEAT INDEX
  VSB - VISIBILITY
$$





USA.gov is the U.S. government's official web portal to all federal, state and local government web resources and services.